Location: Banios
(43.0451°N, 0.2335°E)
Time: 21:06:20
(UTC+00:00)

USA 267 - Pass Details

Date: 25 January 2021
Orbit: 1099 x 1108 km, 123.0° (Epoch: 02 March)

Event Time Altitude Azimuth Distance (km) Brightness Sun altitude
Rises 04:50:10 0° 161° (SSE) 3,903 6.4 -27.5°
Reaches altitude 10° 04:52:56 10° 171° (S) 2,948 5.6 -27.0°
Enters shadow 04:57:16 30° 210° (SSW) 1,867 4.2 -26.2°
